| time (UTC) | temp F | wind direction | speed MPH | gust MPH | rain 1hr in | rain 24hr in | rain mn in | humidity % | barometer mb |
| 20260906043853 | 74 | 0.0 | 0.0 | 0.30 | 4.43 | 0.10 | 83 | ||
| 20260906042617 | 74 | 0.0 | 0.0 | 0.30 | 4.43 | 0.10 | 83 | ||
| 20260906041650 | 74 | 0.0 | 0.0 | 0.20 | 4.33 | 0.00 | 82 | ||
| 20260906040723 | 75 | 0.0 | 0.0 | 0.20 | 4.33 | 0.00 | 82 | ||
| 20260906035036 | 75 | 0.0 | 0.0 | 0.10 | 4.23 | 4.23 | 82 | ||
| 20260906034242 | 75 | 0.0 | 0.0 | 0.20 | 4.23 | 4.23 | 81 | ||
| 20260906033038 | 76 | 0.0 | 0.0 | 0.10 | 4.13 | 4.13 | 81 | ||
| 20260906032317 | 75 | 0.0 | 0.0 | 0.10 | 4.13 | 4.13 | 80 | ||
| 20260906031144 | 76 | 0.0 | 0.0 | 0.10 | 4.13 | 4.13 | 79 | ||
| 20260906030043 | 76 | 0.0 | 0.0 | 0.10 | 4.13 | 4.13 | 78 | ||
| 20260906025135 | 76 | 0.0 | 0.0 | 0.20 | 4.13 | 4.13 | 80 | ||
| 20260906024045 | 76 | 0.0 | 0.0 | 0.20 | 4.04 | 4.04 | 77 | ||
| 20260906023222 | 76 | 0.0 | 0.0 | 0.20 | 4.13 | 4.04 | 77 | ||
| 20260906022223 | 76 | 0.0 | 0.0 | 0.20 | 4.23 | 4.04 | 77 | ||
| 20260906021256 | 76 | 0.0 | 0.0 | 0.20 | 4.33 | 4.04 | 77 | ||
| 20260906020053 | 77 | 0.0 | 0.0 | 0.30 | 4.33 | 4.04 | 76 | ||
| 20260906015054 | 0 | 0.0 | 0.0 | 0.20 | 4.23 | 3.94 | |||
| 20260906014023 | 77 | 0.0 | 0.0 | 0.10 | 4.13 | 3.84 | 74 | ||
| 20260906013056 | 78 | 0.0 | 0.0 | 0.20 | 4.43 | 3.84 | 74 | ||
| 20260906012058 | 78 | 0.0 | 0.0 | 0.20 | 4.43 | 3.84 | 73 | ||
| 20260906011305 | 78 | 0.0 | 0.0 | 0.20 | 4.43 | 3.84 | 71 | ||
| 20260906005753 | 79 | 0.0 | 0.0 | 0.10 | 4.33 | 3.74 | 69 | ||
| 20260906004104 | 80 | 0.0 | 0.0 | 0.10 | 4.43 | 3.74 | 68 | ||
| 20260906003537 | 80 | 0.0 | 0.0 | 0.10 | 4.43 | 3.64 | 68 | ||
| 20260906002241 | 80 | 261 | 1.0 | 3.0 | 0.20 | 4.43 | 3.64 | 68 | |
| 20260906001108 | 80 | 276 | 1.0 | 2.0 | 0.20 | 4.53 | 3.64 | 68 | |
| 20260906000110 | 81 | 60 | 0.0 | 1.0 | 0.39 | 4.53 | 3.64 | 66 | |
| 20260905235214 | 82 | 166 | 0.0 | 1.0 | 0.39 | 4.72 | 3.64 | 66 | |
| 20260905234042 | 82 | 260 | 1.0 | 3.0 | 0.49 | 4.72 | 3.64 | 65 | |
| 20260905233146 | 83 | 243 | 2.0 | 2.0 | 0.49 | 4.63 | 3.54 | 66 | |
| 20260905232044 | 83 | 35 | 2.0 | 4.0 | 0.59 | 4.53 | 3.44 | 64 | |
| 20260905231118 | 84 | 268 | 2.0 | 3.0 | 0.69 | 4.53 | 3.44 | 61 | |
| 20260905230107 | 85 | 140 | 1.0 | 1.0 | 0.49 | 4.33 | 3.25 | 60 | |
| 20260905225152 | 86 | 258 | 1.0 | 2.0 | 0.59 | 4.53 | 3.25 | 61 | |
| 20260905224019 | 87 | 343 | 2.0 | 2.0 | 0.59 | 4.63 | 3.15 | 58 | |
| 20260905223021 | 87 | 73 | 2.0 | 4.0 | 0.49 | 4.63 | 3.05 | 57 | |
| 20260905222022 | 87 | 347 | 3.0 | 6.0 | 0.30 | 4.43 | 2.85 | 53 | |
| 20260905221023 | 89 | 43 | 2.0 | 3.0 | 0.30 | 4.43 | 2.76 | 48 | |
| 20260905220058 | 90 | 97 | 1.0 | 2.0 | 0.30 | 4.43 | 2.76 | 45 | |
| 20260905215028 | 91 | 359 | 2.0 | 3.0 | 0.20 | 4.33 | 2.66 | 41 | |
| 20260905214029 | 93 | 297 | 2.0 | 3.0 | 0.10 | 4.33 | 2.56 | 35 | |
| 20260905213205 | 94 | 65 | 4.0 | 6.0 | 0.10 | 4.33 | 2.56 | 34 | |
| 20260905212051 | 94 | 49 | 2.0 | 4.0 | 0.20 | 4.33 | 2.56 | 36 | |
| 20260905211033 | 94 | 11 | 2.0 | 3.0 | 0.10 | 4.33 | 2.46 | 35 | |
| 20260905210106 | 95 | 3 | 2.0 | 4.0 | 0.20 | 4.33 | 2.46 | 35 | |
| 20260905205036 | 94 | 248 | 1.0 | 3.0 | 0.20 | 4.33 | 2.46 | 35 | |
| 20260905204140 | 93 | 277 | 2.0 | 3.0 | 0.30 | 4.33 | 2.46 | 38 | |
| 20260905203111 | 93 | 277 | 2.0 | 3.0 | 0.39 | 4.33 | 2.46 | 38 | |
| 20260905202041 | 92 | 308 | 1.0 | 2.0 | 0.30 | 4.23 | 2.36 | 39 | |
| 20260905201043 | 92 | 245 | 1.0 | 2.0 | 0.59 | 4.33 | 2.36 | 39 | |
| 20260905200043 | 92 | 266 | 3.0 | 4.0 | 0.49 | 4.23 | 2.26 | 41 | |
| 20260905195117 | 92 | 239 | 2.0 | 3.0 | 0.49 | 4.33 | 2.26 | 43 | |
| 20260905194119 | 92 | 46 | 1.0 | 2.0 | 0.39 | 4.33 | 2.17 | 46 | |
| 20260905193048 | 91 | 210 | 1.0 | 3.0 | 0.30 | 4.23 | 2.07 | 48 | |
| 20260905192049 | 90 | 59 | 0.0 | 1.0 | 0.30 | 4.23 | 2.07 | 49 | |
| 20260905191020 | 90 | 298 | 2.0 | 3.0 | 0.00 | 3.94 | 1.77 | 55 | |
| 20260905190124 | 88 | 57 | 1.0 | 3.0 | 0.00 | 3.94 | 1.77 | 59 | |
| 20260905185022 | 86 | 73 | 1.0 | 2.0 | 0.00 | 3.94 | 1.77 | 66 | |
| 20260905184024 | 83 | 46 | 1.0 | 3.0 | 0.00 | 3.94 | 1.77 | 76 | |
| 20260905183025 | 79 | 63 | 1.0 | 3.0 | 0.10 | 4.04 | 1.77 | 84 | |
| 20260905182028 | 77 | 39 | 1.0 | 3.0 | 0.30 | 4.23 | 1.77 | 88 | |
| 20260905181101 | 77 | 78 | 0.0 | 1.0 | 0.39 | 4.23 | 1.77 | 90 | |
| 20260905175135 | 75 | 338 | 0.0 | 1.0 | 0.49 | 4.43 | 1.77 | 93 | |
| 20260905174105 | 74 | 278 | 1.0 | 2.0 | 0.49 | 4.43 | 1.77 | 94 | |
| 20260905173209 | 74 | 0.0 | 0.0 | 0.49 | 4.33 | 1.67 | 94 | ||
| 20260905172037 | 73 | 0.0 | 0.0 | 0.39 | 4.23 | 1.48 | 93 | ||
| 20260905171038 | 72 | 0.0 | 0.0 | 0.39 | 4.13 | 1.38 | 92 | ||
| 20260905170111 | 72 | 37 | 5.0 | 8.0 | 0.39 | 4.13 | 1.38 | 84 | |
| 20260905165041 | 81 | 32 | 7.0 | 12.0 | 0.30 | 4.04 | 1.28 | 59 | |
| 20260905164042 | 85 | 52 | 3.0 | 5.0 | 0.39 | 4.04 | 1.28 | 56 | |
| 20260905163044 | 87 | 49 | 5.0 | 7.0 | 0.30 | 3.94 | 1.18 | 49 | |
| 20260905162045 | 90 | 313 | 1.0 | 2.0 | 0.20 | 3.84 | 1.08 | 45 | |
| 20260905161048 | 90 | 223 | 3.0 | 5.0 | 0.10 | 3.74 | 0.98 | 45 | |
| 20260905160120 | 89 | 212 | 1.0 | 2.0 | 0.20 | 3.74 | 0.98 | 48 | |
| 20260905155050 | 88 | 0.0 | 0.0 | 0.20 | 3.74 | 0.98 | 51 | ||
| 20260905154020 | 87 | 209 | 1.0 | 3.0 | 0.10 | 3.64 | 0.89 | 55 | |
| 20260905153042 | 86 | 240 | 1.0 | 2.0 | 0.10 | 3.84 | 0.89 | 59 | |
| 20260905152023 | 84 | 208 | 1.0 | 4.0 | 0.10 | 3.84 | 0.89 | 63 | |
| 20260905151024 | 83 | 256 | 2.0 | 3.0 | 0.10 | 3.94 | 0.89 | 64 | |
| 20260905150046 | 83 | 213 | 1.0 | 1.0 | 0.00 | 3.84 | 0.79 | 65 | |
| 20260905145027 | 82 | 201 | 1.0 | 2.0 | 0.00 | 3.84 | 0.79 | 68 | |
| 20260905144031 | 81 | 273 | 0.0 | 1.0 | 0.00 | 3.84 | 0.79 | 70 | |
| 20260905143134 | 81 | 228 | 1.0 | 1.0 | 0.00 | 3.84 | 0.79 | 71 | |
| 20260905142444 | 80 | 193 | 0.0 | 1.0 | 0.00 | 3.84 | 0.79 | 73 | |
| 20260905141033 | 79 | 201 | 1.0 | 2.0 | 0.00 | 3.94 | 0.79 | 73 | |
| 20260905140035 | 79 | 259 | 1.0 | 1.0 | 0.00 | 3.94 | 0.79 | 75 | |
| 20260905135057 | 0 | 0.0 | 0.0 | 0.00 | 3.94 | 0.79 | |||
| 20260905134202 | 78 | 0.0 | 0.0 | 0.00 | 3.94 | 0.79 | 77 | ||
| 20260905133041 | 77 | 199 | 0.0 | 1.0 | 0.00 | 3.94 | 0.79 | 78 | |
| 20260905132248 | 77 | 170 | 0.0 | 1.0 | 0.00 | 3.94 | 0.79 | 79 | |
| 20260905131114 | 77 | 0.0 | 0.0 | 0.00 | 3.94 | 0.79 | 81 | ||
| 20260905130342 | 76 | 0.0 | 0.0 | 0.00 | 3.94 | 0.79 | 83 | ||
| 20260905125324 | 75 | 0.0 | 0.0 | 0.00 | 3.94 | 0.79 | 83 | ||
| 20260905124049 | 0 | 0.0 | 0.0 | 0.00 | 3.94 | 0.79 | |||
| 20260905123050 | 74 | 0.0 | 0.0 | 0.00 | 3.94 | 0.79 | 86 | ||
| 20260905122451 | 74 | 0.0 | 0.0 | 0.00 | 3.94 | 0.79 | 86 | ||
| 20260905121503 | 73 | 0.0 | 0.0 | 0.00 | 3.94 | 0.79 | 87 | ||
| 20260905115641 | 72 | 0.0 | 0.0 | 0.00 | 3.94 | 0.79 | 87 | ||
| 20260905114045 | 72 | 0.0 | 0.0 | 0.00 | 3.94 | 0.79 | 87 | ||
| 20260905113026 | 71 | 0.0 | 0.0 | 0.10 | 3.94 | 0.79 | 88 | ||
| 20260905112100 | 71 | 0.0 | 0.0 | 0.10 | 3.94 | 0.79 | 88 | ||
| 20260905111132 | 71 | 0.0 | 0.0 | 0.10 | 3.94 | 0.79 | 87 | ||
| 20260905110411 | 71 | 0.0 | 0.0 | 0.20 | 3.94 | 0.79 | 87 | ||
| 20260905105350 | 71 | 0.0 | 0.0 | 0.20 | 3.94 | 0.79 | 86 | ||
| 20260905104035 | 71 | 0.0 | 0.0 | 0.20 | 4.04 | 0.79 | 86 | ||
| 20260905103302 | 71 | 0.0 | 0.0 | 0.10 | 4.04 | 0.69 | 86 | ||
| 20260905102108 | 71 | 0.0 | 0.0 | 0.10 | 4.04 | 0.69 | 85 | ||
| 20260905101141 | 72 | 0.0 | 0.0 | 0.10 | 4.04 | 0.69 | 84 | ||
| 20260905100132 | 72 | 0.0 | 0.0 | 0.10 | 3.94 | 0.59 | 84 | ||
| 20260905095041 | 72 | 0.0 | 0.0 | 0.20 | 4.04 | 0.59 | 84 | ||
| 20260905093601 | 72 | 0.0 | 0.0 | 0.20 | 4.04 | 0.59 | 84 | ||
| 20260905092602 | 72 | 0.0 | 0.0 | 0.20 | 4.04 | 0.59 | 83 | ||
| 20260905091634 | 72 | 0.0 | 0.0 | 0.20 | 4.04 | 0.59 | 83 | ||
| 20260905091016 | 72 | 0.0 | 0.0 | 0.30 | 4.04 | 0.59 | 83 | ||
| 20260905085800 | 73 | 0.0 | 0.0 | 0.10 | 3.94 | 0.39 | 82 | ||
| 20260905084556 | 73 | 0.0 | 0.0 | 0.20 | 3.94 | 0.39 | 82 | ||
| 20260905083711 | 73 | 0.0 | 0.0 | 0.20 | 3.94 | 0.39 | 81 | ||
| 20260905082540 | 73 | 0.0 | 0.0 | 0.20 | 3.94 | 0.39 | 81 | ||
| 20260905081818 | 74 | 0.0 | 0.0 | 0.20 | 3.94 | 0.39 | 81 | ||
| 20260905080922 | 73 | 67 | 0.0 | 1.0 | 0.10 | 3.84 | 0.30 | 81 | |
| 20260905075821 | 73 | 0.0 | 0.0 | 0.20 | 3.84 | 0.30 | 82 | ||
| 20260905074648 | 73 | 63 | 0.0 | 1.0 | 0.10 | 3.74 | 0.20 | 81 | |
| 20260905073649 | 73 | 0.0 | 0.0 | 0.10 | 3.74 | 0.20 | 79 | ||
| 20260905072722 | 73 | 0.0 | 0.0 | 0.10 | 3.74 | 0.20 | 78 | ||
| 20260905072330 | 73 | 0.0 | 0.0 | 0.10 | 3.74 | 0.20 | 78 | ||
| 20260905070519 | 74 | 0.0 | 0.0 | 0.10 | 3.74 | 0.20 | 79 | ||
| 20260905065624 | 74 | 0.0 | 0.0 | 0.00 | 3.74 | 0.10 | 78 | ||
| 20260905064039 | 74 | 0.0 | 0.0 | 0.00 | 3.94 | 0.10 | 78 | ||
| 20260905063112 | 74 | 0.0 | 0.0 | 0.00 | 3.94 | 0.10 | 78 | ||
| 20260905062205 | 75 | 0.0 | 0.0 | 0.00 | 3.94 | 0.10 | 78 | ||
| 20260905061218 | 74 | 0.0 | 0.0 | 0.00 | 3.94 | 0.10 | 78 | ||
| 20260905055808 | 75 | 0.0 | 0.0 | 0.00 | 3.94 | 0.10 | 80 | ||
| 20260905054809 | 74 | 0.0 | 0.0 | 0.10 | 3.94 | 0.10 | 79 | ||
| 20260905053810 | 75 | 0.0 | 0.0 | 0.10 | 3.94 | 0.10 | 78 | ||
| 20260905052709 | 75 | 126 | 0.0 | 1.0 | 0.10 | 4.04 | 0.10 | 77 | |
| 20260905051639 | 76 | 81 | 0.0 | 1.0 | 0.10 | 4.04 | 0.10 | 76 | |
| 20260905050641 | 76 | 0.0 | 0.0 | 0.10 | 4.04 | 0.10 | 76 | ||
| 20260905045642 | 76 | 59 | 0.0 | 1.0 | 0.10 | 4.04 | 0.10 | 76 | |
| 20260905044715 | 76 | 75 | 0.0 | 1.0 | 0.00 | 3.94 | 0.00 | 76 |